User: anonymous   Login
Location: Slanting_Bridge
(35.6330°N, 80.9830°W)
Time: 11:26:22
(UTC-04:00)
Language:

Hamsat - Orbit

View from above orbital plane
View from above orbital plane
View from above satellite
View from above satellite

Ground track
Ground track

The orbit data is extracted from the following two-line orbital elements,

1 28650U 05017B   14294.77255649  .00004530  00000-0  52133-3 0  8874
2 28650 097.5635 293.4685 0026596 099.9469 260.4750 14.85961484512023
Epoch (UTC): 21 October 2014 18:32:28
Eccentricity: 0.0026596
inclination: 97.5635°
perigee height: 592 km
apogee height: 629 km
right ascension of ascending node: 293.4685°
argument of perigee: 99.9469°
revolutions per day: 14.85961484
mean anomaly at epoch: 260.4750°
orbit number at epoch: 51202

The dashed part of the orbit path shows where the satellite is in the earth's shadow,  

DLR